DW3800 Weather Reports


time (UTC)temp
C
wind
direction
speed
KPH
gust
KPH
rain 1hr
cm
rain 24hr
cm
rain mn
cm
humidity
%
barometer
mb
20260904111230 22 107 0.0 1.6 0.00 0.00 0.00 99 1012.9
20260904110726 22 99 0.0 0.0 0.00 0.00 0.00 99 1013.1
20260904110225 22 103 0.0 0.0 0.00 0.00 0.00 99 1013.0
20260904105720 22 107 0.0 0.0 0.00 0.00 0.00 99 1013.0
20260904105215 22 99 0.0 0.0 0.00 0.00 0.00 99 1013.0
20260904104710 22 100 0.0 0.0 0.00 0.00 0.00 99 1012.8
20260904104206 22 119 0.0 0.0 0.00 0.00 0.00 99 1013.0
20260904103703 22 107 0.0 0.0 0.00 0.00 0.00 99 1013.1
20260904103157 22 33 1.6 1.6 0.00 0.00 0.00 99 1013.1
20260904102653 22 120 0.0 1.6 0.00 0.00 0.00 99 1013.1
20260904102148 22 310 1.6 4.8 0.00 0.00 0.00 99 1013.3
20260904101645 22 75 0.0 0.0 0.00 0.00 0.00 99 1013.2
20260904101140 22 103 0.0 0.0 0.00 0.00 0.00 99 1013.2
20260904100636 22 310 0.0 3.2 0.00 0.00 0.00 99 1013.3
20260904100131 22 354 1.6 3.2 0.00 0.00 0.00 99 1013.0
20260904095626 22 98 0.0 0.0 0.00 0.00 0.00 99 1012.9
20260904095126 22 100 0.0 0.0 0.00 0.00 0.00 99 1013.0
20260904094620 22 93 0.0 0.0 0.00 0.00 0.00 99 1012.9
20260904094115 22 100 0.0 0.0 0.00 0.00 0.00 99 1012.7
20260904093612 22 94 0.0 0.0 0.00 0.00 0.00 99 1013.0
20260904093107 22 99 0.0 0.0 0.00 0.00 0.00 99 1013.0
20260904092603 22 92 0.0 0.0 0.00 0.00 0.00 99 1013.0
20260904092059 22 103 0.0 0.0 0.00 0.00 0.00 99 1012.7
20260904091555 22 103 0.0 0.0 0.00 0.00 0.00 99 1012.7
20260904091054 22 95 0.0 0.0 0.00 0.00 0.00 99 1012.6
20260904090550 22 95 0.0 0.0 0.00 0.00 0.00 99 1012.6
20260904090045 22 97 0.0 0.0 0.00 0.00 0.00 99 1012.7
20260904085540 22 95 0.0 0.0 0.00 0.00 0.00 99 1012.6
20260904085039 22 95 0.0 0.0 0.00 0.00 0.00 99 1012.6
20260904084536 22 67 0.0 0.0 0.00 0.00 0.00 99 1012.6
20260904084032 22 101 0.0 0.0 0.00 0.00 0.00 98 1012.5
20260904083527 22 91 0.0 0.0 0.00 0.00 0.00 98 1012.3
20260904083023 22 93 0.0 0.0 0.00 0.00 0.00 98 1012.5
20260904082518 22 91 0.0 0.0 0.00 0.00 0.00 98 1012.6
20260904082013 23 77 0.0 0.0 0.00 0.00 0.00 98 1012.5
20260904081509 23 83 0.0 1.6 0.00 0.00 0.00 98 1012.5
20260904081004 23 95 0.0 0.0 0.00 0.00 0.00 98 1012.5
20260904080459 23 95 0.0 0.0 0.00 0.00 0.00 98 1012.5
20260904075955 23 95 0.0 0.0 0.00 0.00 0.00 97 1012.5
20260904075451 23 100 0.0 0.0 0.00 0.00 0.00 97 1012.4
20260904074950 23 100 0.0 0.0 0.00 0.00 0.00 97 1012.6
20260904074445 23 93 0.0 0.0 0.00 0.00 0.00 97 1012.4
20260904073940 23 97 0.0 0.0 0.00 0.00 0.00 97 1012.4
20260904073436 23 87 0.0 0.0 0.00 0.00 0.00 96 1012.5
20260904072931 23 81 0.0 0.0 0.00 0.00 0.00 96 1012.6
20260904072427 23 96 0.0 0.0 0.00 0.00 0.00 96 1012.7
20260904071921 23 92 0.0 0.0 0.00 0.00 0.00 96 1012.5
20260904071417 23 100 0.0 0.0 0.00 0.00 0.00 96 1012.7
20260904070912 23 102 0.0 3.2 0.00 0.00 0.00 96 1012.7
20260904070411 23 104 0.0 0.0 0.00 0.00 0.00 96 1012.6
20260904065910 23 101 0.0 1.6 0.00 0.00 0.00 95 1012.6
20260904065407 23 100 0.0 0.0 0.00 0.00 0.00 95 1012.8
20260904064906 23 97 0.0 1.6 0.00 0.00 0.00 95 1012.6
20260904064403 23 89 0.0 4.8 0.00 0.00 0.00 95 1012.8
20260904063858 23 98 0.0 1.6 0.00 0.00 0.00 95 1012.8
20260904063355 23 101 1.6 3.2 0.00 0.00 0.00 95 1012.8
20260904062849 23 115 0.0 0.0 0.00 0.00 0.00 95 1012.7
20260904062345 23 122 0.0 1.6 0.00 0.00 0.00 95 1012.8
20260904061841 23 109 0.0 3.2 0.00 0.00 0.00 94 1012.6
20260904061337 23 106 0.0 1.6 0.00 0.00 0.00 94 1012.8
20260904060833 23 114 0.0 1.6 0.00 0.00 0.00 94 1012.7
20260904060329 23 104 0.0 0.0 0.00 0.00 0.00 94 1012.9
20260904055824 24 108 0.0 0.0 0.00 0.00 0.00 94 1012.8
20260904055319 24 106 0.0 1.6 0.00 0.00 0.00 93 1012.8
20260904054815 24 114 0.0 1.6 0.00 0.00 0.00 93 1012.7
20260904054310 24 104 0.0 0.0 0.00 0.00 0.00 93 1012.8
20260904053800 24 107 1.6 3.2 0.00 0.00 0.00 93 1012.7
20260904053300 24 99 0.0 1.6 0.00 0.00 0.00 92 1012.9
20260904052756 24 120 0.0 4.8 0.00 0.00 0.00 92 1012.9
20260904052252 24 111 1.6 3.2 0.00 0.00 0.00 92 1012.8
20260904051748 24 99 1.6 3.2 0.00 0.00 0.00 92 1012.5
20260904051243 24 161 1.6 8.0 0.00 0.00 0.00 92 1012.6
20260904050738 24 125 1.6 4.8 0.00 0.00 0.00 92 1012.5
20260904050235 25 88 0.0 9.7 0.00 0.00 0.00 91 1012.5
20260904045735 25 116 1.6 8.0 0.00 0.10 0.10 91 1012.6
20260904045230 25 95 4.8 4.8 0.00 0.10 0.10 91 1012.3
20260904044724 25 79 3.2 8.0 0.00 0.10 0.10 91 1012.8
20260904044221 25 127 0.0 3.2 0.00 0.10 0.10 91 1012.5
20260904043717 25 70 1.6 8.0 0.00 0.10 0.10 91 1012.5
20260904043213 25 152 3.2 9.7 0.00 0.10 0.10 91 1012.6
20260904042708 25 112 0.0 8.0 0.00 0.10 0.10 91 1012.6
20260904042205 25 90 0.0 4.8 0.00 0.10 0.10 90 1012.5
20260904041658 25 106 0.0 9.7 0.00 0.10 0.10 90 1012.4
20260904041155 25 86 1.6 1.6 0.00 0.10 0.10 90 1012.7
20260904040651 25 109 0.0 4.8 0.00 0.10 0.10 90 1012.6
20260904040146 25 93 0.0 8.0 0.00 0.10 0.10 90 1012.5
20260904035642 25 82 1.6 3.2 0.00 0.10 0.10 90 1012.4
20260904035137 25 165 1.6 4.8 0.00 0.10 0.10 90 1012.6
20260904034636 25 124 1.6 4.8 0.00 0.10 0.10 90 1012.5
20260904034132 25 121 1.6 3.2 0.00 0.10 0.10 90 1012.7
20260904033627 25 102 0.0 4.8 0.00 0.10 0.10 90 1012.6
20260904033125 25 116 3.2 4.8 0.00 0.10 0.10 89 1012.5
20260904032620 25 99 3.2 4.8 0.00 0.10 0.10 89 1012.3
20260904032119 25 99 0.0 3.2 0.00 0.10 0.10 89 1012.7
20260904031618 25 117 0.0 3.2 0.00 0.10 0.10 89 1012.6
20260904031114 25 116 0.0 9.7 0.00 0.10 0.10 89 1012.7
20260904030610 25 125 1.6 4.8 0.00 0.10 0.10 88 1012.8
20260904030105 25 53 1.6 3.2 0.00 0.10 0.10 88 1012.8
20260904025601 25 113 0.0 4.8 0.00 0.10 0.10 87 1012.9
20260904025056 25 45 0.0 1.6 0.00 0.10 0.10 87 1013.0
20260904024551 25 265 0.0 11.3 0.00 0.10 0.10 87 1012.7
20260904024047 25 104 0.0 3.2 0.00 0.10 0.10 86 1012.8
20260904023543 25 87 1.6 3.2 0.00 0.10 0.10 86 1013.0
20260904023039 25 35 3.2 3.2 0.00 0.10 0.10 86 1012.7
20260904022539 25 97 0.0 3.2 0.00 0.10 0.10 85 1012.8
20260904022036 25 72 1.6 1.6 0.00 0.10 0.10 85 1012.6
20260904021531 25 108 1.6 4.8 0.00 0.10 0.10 84 1012.9
20260904021026 25 85 0.0 4.8 0.00 0.10 0.10 84 1012.8
20260904020526 26 103 0.0 1.6 0.00 0.10 0.10 83 1012.5
20260904020021 26 101 0.0 1.6 0.00 0.10 0.10 83 1012.5
20260904015515 26 84 3.2 3.2 0.00 0.10 0.10 82 1012.5
20260904015014 26 88 0.0 3.2 0.00 0.10 0.10 82 1012.8
20260904014509 26 80 0.0 3.2 0.00 0.10 0.10 81 1012.7
20260904014004 26 100 0.0 1.6 0.00 0.10 0.10 81 1012.6
20260904013501 26 92 0.0 3.2 0.00 0.10 0.10 81 1012.4
20260904012957 26 110 0.0 9.7 0.00 0.10 0.10 80 1012.6
20260904012456 26 91 1.6 4.8 0.00 0.10 0.10 80 1012.3
20260904011950 26 114 0.0 4.8 0.00 0.10 0.10 79 1012.3
20260904011445 26 101 1.6 4.8 0.00 0.10 0.10 79 1012.3
20260904010941 26 89 0.0 8.0 0.00 0.10 0.10 79 1012.2
20260904010437 26 179 3.2 3.2 0.00 0.10 0.10 78 1012.0
20260904005931 26 118 0.0 8.0 0.00 0.10 0.10 78 1012.0
20260904005422 27 112 0.0 4.8 0.00 0.10 0.10 77 1012.0
20260904004921 27 168 3.2 4.8 0.00 0.10 0.10 77 1012.0
20260904004419 27 129 6.4 9.7 0.00 0.10 0.10 77 1012.0
20260904003919 27 111 0.0 9.7 0.00 0.10 0.10 76 1012.2
20260904003414 27 199 1.6 11.3 0.00 0.10 0.10 75 1012.0
20260904002909 27 154 0.0 11.3 0.00 0.10 0.10 75 1012.2
20260904002406 27 110 0.0 12.9 0.00 0.10 0.10 74 1012.0
20260904001904 27 120 0.0 1.6 0.00 0.10 0.10 74 1012.2
20260904001401 28 142 6.4 9.7 0.00 0.10 0.10 73 1012.1
20260904000855 28 123 1.6 12.9 0.00 0.10 0.10 73 1012.2
20260904000355 28 106 4.8 11.3 0.00 0.10 0.10 73 1012.2
20260903235855 28 99 1.6 9.7 0.00 0.10 0.10 73 1012.2
20260903235351 28 152 6.4 11.3 0.00 0.10 0.10 72 1012.2
20260903234850 28 136 0.0 12.9 0.00 0.10 0.10 72 1011.8
20260903234346 28 75 4.8 11.3 0.00 0.10 0.10 71 1012.2
20260903233842 28 123 3.2 9.7 0.00 0.10 0.10 71 1011.8
20260903233338 28 146 3.2 3.2 0.00 0.10 0.10 71 1011.7
20260903232837 28 124 1.6 3.2 0.00 0.10 0.10 72 1011.6
20260903232333 28 91 1.6 3.2 0.00 0.10 0.10 72 1011.7
20260903231832 28 108 1.6 3.2 0.00 0.10 0.10 72 1011.5
20260903231327 28 107 1.6 3.2 0.00 0.10 0.10 71 1011.4
20260903230823 28 115 4.8 8.0 0.00 0.10 0.10 71 1011.3
20260903230318 28 92 4.8 8.0 0.00 0.10 0.10 71 1011.3
20260903225814 28 72 9.7 16.1 0.00 0.10 0.10 71 1011.4
20260903225310 28 57 3.2 11.3 0.00 0.10 0.10 70 1011.5
20260903224806 28 97 6.4 9.7 0.00 0.10 0.10 70 1011.3
20260903224302 28 72 0.0 16.1 0.00 0.10 0.10 70 1011.4
20260903223757 28 154 6.4 12.9 0.00 0.10 0.10 69 1011.5
20260903223256 28 33 3.2 20.9 0.00 0.10 0.10 69 1011.6
20260903222751 28 135 0.0 3.2 0.00 0.10 0.10 69 1011.5
20260903222250 28 83 1.6 9.7 0.00 0.10 0.10 69 1011.3
20260903221745 28 146 3.2 4.8 0.00 0.10 0.10 69 1011.6
20260903221243 28 182 3.2 17.7 0.00 0.10 0.10 68 1011.2
20260903220742 28 222 1.6 4.8 0.00 0.10 0.10 69 1011.4
20260903220237 28 190 12.9 22.5 0.00 0.10 0.10 69 1011.4
20260903215730 28 120 4.8 8.0 0.00 0.10 0.10 69 1011.6
20260903215226 28 182 4.8 11.3 0.00 0.10 0.10 71 1011.6
20260903214724 28 119 1.6 9.7 0.00 0.10 0.10 72 1011.6
20260903214221 28 98 3.2 8.0 0.00 0.10 0.10 72 1011.7
20260903213714 28 117 1.6 3.2 0.00 0.10 0.10 72 1011.7
20260903213211 28 80 4.8 14.5 0.00 0.10 0.10 72 1011.8
20260903212706 28 149 4.8 12.9 0.00 0.10 0.10 72 1011.7
20260903212202 28 161 1.6 20.9 0.00 0.10 0.10 72 1011.3
20260903211655 28 97 0.0 20.9 0.00 0.10 0.10 72 1012.0
20260903211153 28 113 6.4 9.7 0.00 0.10 0.10 70 1012.4
20260903210648 28 123 1.6 9.7 0.00 0.10 0.10 72 1012.6
20260903210143 28 126 1.6 11.3 0.00 0.10 0.10 73 1012.6
20260903205643 28 101 1.6 12.9 0.00 0.10 0.10 72 1012.6
20260903205136 28 109 4.8 8.0 0.00 0.10 0.10 71 1012.4
20260903204632 29 103 1.6 4.8 0.00 0.10 0.10 70 1012.1
20260903204128 29 144 1.6 4.8 0.00 0.10 0.10 69 1012.5
20260903203623 29 156 1.6 9.7 0.00 0.10 0.10 71 1012.4
20260903203118 28 129 6.4 12.9 0.00 0.10 0.10 72 1012.2
20260903202613 28 199 1.6 14.5 0.00 0.10 0.10 73 1012.3
20260903202109 28 102 1.6 12.9 0.00 0.10 0.10 73 1012.4
20260903201603 28 158 6.4 9.7 0.00 0.10 0.10 73 1012.6
20260903201102 28 151 4.8 17.7 0.00 0.10 0.10 73 1012.2
20260903200552 28 81 6.4 11.3 0.00 0.10 0.10 73 1012.3
20260903200047 28 153 3.2 8.0 0.00 0.10 0.10 73 1012.5
20260903195543 28 97 4.8 8.0 0.00 0.10 0.10 75 1012.5
20260903195038 27 180 8.0 11.3 0.00 0.10 0.10 76 1012.5
20260903194533 27 192 6.4 8.0 0.00 0.10 0.10 79 1012.7
20260903194028 26 100 4.8 12.9 0.00 0.10 0.10 82 1012.8
20260903193525 25 111 3.2 9.7 0.00 0.10 0.10 84 1012.6
20260903193019 25 85 0.0 3.2 0.00 0.10 0.10 86 1012.8
20260903192517 24 121 4.8 8.0 0.00 0.10 0.10 88 1012.8
20260903192016 24 116 0.0 3.2 0.00 0.10 0.10 89 1013.2
20260903191513 24 61 0.0 1.6 0.18 0.10 0.10 89 1013.5
20260903191007 24 152 0.0 4.8 0.48 0.10 0.10 87 1013.7
20260903190507 25 149 0.0 1.6 0.30 0.08 0.08 87 1013.5
20260903190001 25 131 0.0 4.8 0.00 0.03 0.03 86 1013.3
20260903185456 25 15 4.8 8.0 0.00 0.03 0.03 88 1013.1
20260903184950 25 156 0.0 3.2 0.00 0.03 0.03 88 1013.2
20260903184447 25 139 0.0 1.6 0.13 0.03 0.03 88 1013.3
20260903183942 25 140 0.0 0.0 0.00 0.00 0.00 85 1013.6
20260903183436 25 168 1.6 3.2 0.00 0.00 0.00 82 1013.6
20260903182936 25 21 1.6 1.6 0.00 0.00 0.00 81 1013.6
20260903182434 25 95 1.6 4.8 0.00 0.00 0.00 80 1013.3
20260903181930 25 128 1.6 3.2 0.00 0.00 0.00 79 1013.6
20260903181425 25 124 0.0 0.0 0.00 0.00 0.00 79 1013.4
20260903180924 25 103 1.6 1.6 0.00 0.00 0.00 78 1013.4
20260903180419 25 324 1.6 1.6 0.00 0.00 0.00 78 1013.0
20260903175919 25 156 0.0 3.2 0.00 0.00 0.00 79 1013.2
20260903175413 25 131 0.0 3.2 0.00 0.00 0.00 79 1013.4
20260903174908 25 52 0.0 11.3 0.00 0.00 0.00 79 1013.2
20260903174403 26 105 1.6 3.2 0.00 0.00 0.00 78 1013.1
20260903173903 26 132 0.0 1.6 0.00 0.00 0.00 78 1013.5
20260903173357 26 76 3.2 4.8 0.00 0.00 0.00 78 1013.5
20260903172853 25 81 3.2 8.0 0.00 0.00 0.00 81 1013.8
20260903172348 25 121 4.8 14.5 0.00 0.00 0.00 81 1014.0
20260903171843 25 117 4.8 16.1 0.00 0.00 0.00 80 1014.1
20260903171339 25 115 3.2 8.0 0.00 0.00 0.00 79 1014.1
20260903170838 25 90 0.0 8.0 0.00 0.00 0.00 79 1014.1
20260903170333 26 77 4.8 8.0 0.00 0.00 0.00 77 1014.0
20260903165831 26 93 1.6 1.6 0.00 0.00 0.00 75 1013.9
20260903165331 26 108 1.6 8.0 0.00 0.00 0.00 74 1014.0
20260903164826 26 106 1.6 4.8 0.00 0.00 0.00 73 1014.0
20260903164321 26 127 0.0 8.0 0.00 0.00 0.00 72 1013.9
20260903163820 27 131 3.2 8.0 0.00 0.00 0.00 69 1014.1
20260903163317 26 124 0.0 4.8 0.00 0.00 0.00 71 1014.0
20260903162813 26 125 1.6 9.7 0.00 0.00 0.00 73 1013.9
20260903162309 26 141 3.2 8.0 0.00 0.00 0.00 73 1013.7
20260903161805 26 107 0.0 4.8 0.00 0.00 0.00 75 1013.8
20260903161300 26 126 4.8 8.0 0.00 0.00 0.00 75 1013.9
20260903160755 26 14 9.7 14.5 0.00 0.00 0.00 74 1013.6
20260903160255 25 174 1.6 3.2 0.00 0.00 0.00 77 1013.6
20260903155753 25 99 4.8 11.3 0.00 0.00 0.00 78 1013.4
20260903155248 25 122 1.6 14.5 0.00 0.00 0.00 79 1013.5
20260903154744 25 152 1.6 9.7 0.00 0.00 0.00 80 1013.9
20260903154240 24 178 1.6 3.2 0.00 0.00 0.00 80 1014.2
20260903153735 24 135 6.4 8.0 0.00 0.00 0.00 80 1014.4
20260903153231 24 116 4.8 4.8 0.00 0.00 0.00 80 1014.0
20260903152727 25 121 3.2 4.8 0.00 0.00 0.00 79 1014.0
20260903152223 25 25 4.8 11.3 0.00 0.00 0.00 79 1013.9
20260903151722 25 73 1.6 4.8 0.00 0.00 0.00 79 1013.7
20260903151218 25 122 1.6 8.0 0.00 0.00 0.00 78 1013.9
20260903150713 25 112 0.0 4.8 0.00 0.00 0.00 79 1013.9
20260903150208 25 149 0.0 8.0 0.00 0.00 0.00 80 1014.0
20260903145708 25 98 1.6 4.8 0.00 0.00 0.00 80 1013.9
20260903145203 25 117 4.8 4.8 0.00 0.00 0.00 80 1013.8
20260903144702 25 87 4.8 8.0 0.00 0.00 0.00 79 1013.9
20260903144157 24 152 0.0 1.6 0.00 0.00 0.00 81 1013.8
20260903143653 24 109 0.0 1.6 0.00 0.00 0.00 80 1013.9
20260903143149 25 95 1.6 1.6 0.00 0.00 0.00 80 1013.8
20260903142645 25 138 4.8 8.0 0.00 0.00 0.00 79 1013.8
20260903142141 25 98 0.0 4.8 0.00 0.00 0.00 79 1013.7
20260903141636 25 75 0.0 1.6 0.00 0.00 0.00 79 1013.8
20260903141131 25 100 1.6 3.2 0.00 0.00 0.00 79 1013.8
20260903140627 24 82 0.0 8.0 0.00 0.00 0.00 81 1013.7
20260903140122 24 117 8.0 11.3 0.00 0.00 0.00 81 1014.0
20260903135619 23 89 3.2 8.0 0.00 0.00 0.00 82 1013.9
20260903135118 23 97 1.6 8.0 0.00 0.00 0.00 84 1013.8
20260903134617 23 106 3.2 4.8 0.00 0.00 0.00 83 1013.6
20260903134113 23 63 1.6 1.6 0.00 0.00 0.00 84 1014.0
20260903133611 23 131 0.0 1.6 0.00 0.00 0.00 85 1014.1
20260903133107 22 117 0.0 3.2 0.00 0.00 0.00 86 1014.0
20260903132602 22 95 1.6 4.8 0.00 0.00 0.00 87 1014.0
20260903132102 22 148 0.0 1.6 0.00 0.00 0.00 87 1013.9
20260903131556 22 176 3.2 4.8 0.00 0.00 0.00 87 1013.9
20260903131055 22 114 0.0 11.3 0.00 0.00 0.00 87 1013.7
20260903130550 22 336 1.6 4.8 0.00 0.00 0.00 87 1014.0
20260903130045 22 193 1.6 1.6 0.00 0.00 0.00 87 1013.9
20260903125543 22 109 0.0 8.0 0.00 0.00 0.00 87 1013.9
20260903125039 22 76 4.8 8.0 0.00 0.00 0.00 87 1014.0
20260903124538 22 155 1.6 3.2 0.00 0.00 0.00 87 1013.7
20260903124033 22 107 1.6 4.8 0.00 0.00 0.00 87 1013.8
20260903123532 22 133 0.0 9.7 0.00 0.00 0.00 87 1013.5
20260903123031 22 123 1.6 8.0 0.00 0.00 0.00 87 1013.7
20260903122530 22 114 0.0 4.8 0.00 0.00 0.00 88 1013.6
20260903122025 22 187 6.4 11.3 0.00 0.00 0.00 88 1013.8
20260903121520 22 187 4.8 9.7 0.00 0.00 0.00 90 1014.0
20260903121016 22 111 3.2 12.9 0.00 0.00 0.00 89 1014.5
20260903120514 23 158 4.8 14.5 0.00 0.00 0.00 87 1014.2
20260903120009 23 196 8.0 11.3 0.00 0.00 0.00 89 1014.0
20260903115507 23 132 3.2 9.7 0.00 0.00 0.00 89 1014.2
20260903115002 23 109 4.8 9.7 0.00 0.00 0.00 89 1013.9
20260903114457 22 155 6.4 9.7 0.00 0.00 0.00 90 1014.0
20260903113953 22 135 3.2 4.8 0.00 0.00 0.00 92 1013.6
20260903113448 22 235 3.2 4.8 0.00 0.00 0.00 93 1013.8
20260903112944 22 135 0.0 1.6 0.00 0.00 0.00 94 1013.8
20260903112440 22 139 0.0 3.2 0.00 0.00 0.00 95 1013.8
20260903111939 22 116 0.0 4.8 0.00 0.00 0.00 96 1013.8